Regional Weather Roundup
Issued by NWS

Home | Current Version | Previous Version | Graphics & Text | Print | Product List | Glossary On
Versions: 1 2 3 4 5 6 7 8 9 10 11 12 13 14 15 16 17 18 19 20 21 22 23 24 25 26 27 28 29 30 31 32 33 34 35 36 37 38 39 40 41 42 43 44 45 46 47 48 49 50
000
ASUS45 KTFX 211419
RWRMT
MONTANA HOURLY WEATHER ROUNDUP
NATIONAL WEATHER SERVICE GREAT FALLS MT
719 AM MST SUN DEC 21 2014

NOTE: "FAIR" INDICATES FEW OR NO CLOUDS BELOW 12000 FEET WITH NO
SIGNIFICANT WEATHER AND/OR OBSTRUCTIONS TO VISIBILITY.

* THESE STATIONS ARE NOT UNDER NWS QUALITY CONTROL. THEY DO NOT
   REPORT WEATHER SUCH AS PRECIPITATION OR FOG.

MTZ001>007-043-211500-
WEST OF THE DIVIDE
CITY           SKY/WX    TMP DP  RH WIND       PRES   REMARKS
KALISPELL      CLOUDY    34  34 100 SW7       29.45R WCI  28
MISSOULA       FOG       30  30 100 N5        29.55R VSB M1/4 WCI  25
BUTTE          CLOUDY    34  30  85 N7        29.52F WCI  28
MULLAN PASS    MOCLDY   N/A N/A N/A N/A       29.50R
* ESSEX        N/A       32  31  96 N/A        N/A
* EUREKA APT   PTCLDY    39  34  82 S9        29.42S WCI  33
* HAMILTON APT MOCLDY    41  37  86 S12       29.56R
* LIBBY APT    PTCLDY   N/A N/A N/A CALM      29.48F
* LINCOLN      N/A       32  32 100 E1         N/A
* POLSON       N/A       35  35 100 S1         N/A
* RONAN APT    PTCLDY    39  37  93 N/A        N/A
* SEELEY LAKE  N/A       29  28  96 W4         N/A
* THOMP F APT  PTCLDY    28  27  96 N/A        N/A
* YAAK HILL    N/A       35  33  92 N/A        N/A
$$

MTZ008-052>055-211500-
SOUTHWEST MONTANA
CITY           SKY/WX    TMP DP  RH WIND       PRES   REMARKS
BOZEMAN        CLOUDY    43  30  60 SW5G16    29.50F
DILLON         CLOUDY    37  32  82 SW12      29.57R WCI  29
* W YELLOWSTON CLOUDY    28  27  96 SW4G13     N/A
* THREE FORKS  MOCLDY    41  41 100 SW18G31    N/A
* TWIN BRIDGES MOCLDY    39  30  70 SE8        N/A   WCI  33
* BOULDER HILL N/A       33  29  85 S12G18     N/A   WCI  24
* MONIDA PASS  N/A       26  26 100 SE13       N/A   WCI  15
* RAYNOLDS PAS N/A       28   9  45 SE23       N/A   WCI  14
* WHITEHALL    N/A       39  32  76 SW15G29    N/A   WCI  31
* WISE RIVER   N/A       31  30  96 SE4        N/A
$$

MTZ009>010-012-014-046-048-049-054-211500-
EAST SLOPES AND CENTRAL MONTANA
CITY           SKY/WX    TMP DP  RH WIND       PRES   REMARKS
CUT BANK       CLOUDY    39  30  70 W22G28    29.27F WCI  29
GREAT FALLS    MOCLDY    41  34  76 SW21G28   29.34F
HELENA         LGT RAIN  36  34  92 SW5       29.49R WCI  32
MALMSTROM AFB  MOCLDY    43  34  71 SW24G33   29.35F
* CONRAD       CLOUDY    36  32  85 S8         N/A   WCI  30
* DEARBORN     N/A       44  34  68 S6G13      N/A
* EAST GLACIER N/A       34  32  92 W32G42     N/A   WCI  20
* MONARCH      N/A       39  24  55 SW19G28    N/A   WCI  29
* PENDROY      N/A       41  29  62 W18        N/A
* ROGERS PASS  N/A       32  31  96 SE9G27     N/A   WCI  24
* SWEET GRASS  N/A       38  30  73 SW16G21    N/A   WCI  29
* WHITE SULPH  N/A       36  31  82 S14G24     N/A   WCI  27
$$

MTZ011-013-016-021-035-040-045-047-050-051-211500-
NORTH CENTRAL MONTANA
CITY           SKY/WX    TMP DP  RH WIND       PRES   REMARKS
HAVRE          LGT RAIN  36  32  85 SW5       29.29F WCI  32
LEWISTOWN      CLOUDY    43  30  60 W22       29.36S
* N BAR RANCH  CLEAR     30  25  82 VRB3      29.36F
* CHINOOK      CLOUDY    27  21  78 E9        29.30F WCI  18
* CHESTER      N/A       26  22  85 NE1        N/A
* DENTON       N/A       38  32  79 S4         N/A
* GEYSER       N/A       43  28  56 SW31G38    N/A
* JUDITH GAP   N/A       38  32  79 SW16G21    N/A   WCI  29
* LOMA         N/A       43  32  65 SW11G17    N/A
$$

MTZ017>020-022>027-061-062-211500-
NORTHEAST MONTANA
CITY           SKY/WX    TMP DP  RH WIND       PRES   REMARKS
GLASGOW        CLOUDY    25  19  78 E14       29.38F WCI  13
GLENDIVE       CLOUDY    27  21  78 S5        29.46F WCI  21
JORDAN         MOCLDY    21  19  92 CALM      29.38F
SIDNEY         FAIR      18  16  92 S5        29.49F WCI  11
WOLF POINT     MOCLDY    16  12  84 NE8       29.43F WCI   5
* BEAVER HILL  N/A       33  23  67 S12        N/A   WCI  24
* CIRCLE       N/A       31  25  78 SE2        N/A
* LINDSAY DVD  N/A       27  23  85 E2         N/A
* PLENTYWOOD A CLEAR     21  18  88 E6        29.44F WCI  13
* POPLAR APT   PTCLDY    16  12  84 NW3       29.44F
* SACO         N/A       24  21  88 E8         N/A   WCI  15
* SCOBEY APT   CLEAR     16   9  74 N/A        N/A
$$

MTZ028>042-056>058-211500-
SOUTHCENTRAL AND SOUTHEAST MONTANA
CITY           SKY/WX    TMP DP  RH WIND       PRES   REMARKS
BAKER          CLOUDY    25  23  92 SE7       29.48F WCI  17
BILLINGS       CLOUDY    39  23  53 SW12G22   29.43F WCI  32
LIVINGSTON     CLOUDY    43  28  56 SW33G47   29.47S
MILES CITY     CLOUDY    27  23  85 S8        29.43F WCI  19
* FORSYTH APT  CLOUDY    30  27  89 CALM      29.43F
* LAUREL APT   CLOUDY    39  18  43 N/A        N/A
* ROUNDUP APT  MOCLDY    34  23  64 S7         N/A   WCI  28
* ALZADA       N/A       34  24  67 SE2        N/A
* HYSHAM       N/A       38  20  48 W5         N/A   WCI  34
* LAME DEER    N/A       37  17  44 SW6        N/A   WCI  32
* REED POINT   N/A       26  24  92 SE1        N/A
* ROSCOE HILL  N/A       41  13  32 S8G17      N/A
$$

REGIONAL REPORTS...DAKOTAS
CITY           SKY/WX    TMP DP  RH WIND       PRES   REMARKS
WILLISTON      CLEAR     16  12  84 CALM      29.49F
DICKINSON      CLEAR     25  19  78 S8        29.49F WCI  16
BEACH          MOCLDY    27  25  92 S10       29.48F WCI  18
CROSBY         CLEAR     19  19 100 S10       29.49F WCI   8
TIOGA          CLEAR     12  12 100 N/A       29.52F
WATFORD CITY   CLEAR     18  16  92 CALM      29.46F
BISMARCK       PTCLDY    18  16  92 E6        29.60F WCI  10
GRAND FORKS    FOG       30  28  92 S16       29.70F WCI  19
FARGO          FOG       32  28  85 S15       29.75F WCI  22
BUFFALO SD     CLEAR     28  21  75 S5        29.44F WCI  22
RAPID CITY     MOCLDY    25  19  78 SW3       29.54F
$$

REGIONAL REPORTS...WYOMING/IDAHO/WASHINGTON
CITY           SKY/WX    TMP DP  RH WIND       PRES   REMARKS
GILLETTE       MOCLDY    36  27  70 SW25G31   29.47F WCI  24
SHERIDAN       CLOUDY    27  19  72 NW6       29.47F WCI  20
CODY           PTCLDY    39  27  62 NW9G22    29.51R WCI  33
YELLOWSTONE LA CLOUDY    27  25  92 N/A       29.65F
SALMON         CLOUDY    37  34  89 NW13      29.62R WCI  29
MULLAN PASS    MOCLDY   N/A N/A N/A N/A       29.50S
SAND POINT     CLOUDY    43  43 100 SW10      29.50R
SPOKANE        PTCLDY    39  37  93 SW20      29.58R WCI  29
$$

REGIONAL REPORTS...ALBERTA
CITY           SKY/WX    TMP DP  RH WIND       PRES   REMARKS
CALGARY        MOCLDY    41  23  49 W20G28    29.17R
LETHBRIDGE     MOCLDY    41  32  70 W26G37    29.18S
MEDICINE HAT   CLOUDY    37  32  82 SW10      29.20F WCI  30
EDMONTON       CLOUDY    19  16  88 E8        29.25R WCI   9
WATERTON GATE  N/A       39  30  70 SW26G40    N/A   WCI  28
CARDSTON       N/A       41  30  65 W15G22     N/A
MILK RIVER     N/A       36  30  79 SW3        N/A
$$

REGIONAL REPORTS...SASKATCHEWAN
CITY           SKY/WX    TMP DP  RH WIND       PRES   REMARKS
SWIFT CURRENT  CLEAR     25  19  78 S15       29.29F WCI  13
REGINA         FAIR      14  12  92 SE13      29.45F
VAL MARIE      N/A       19  19 100 NW1        N/A
ASSINIBOIA     N/A       19  16  88 SE7        N/A   WCI  10
CORONACH       N/A       12  10  92 SE5        N/A   WCI   4

$$




USA.gov is the U.S. government's official web portal to all federal, state and local government web resources and services.